TimeMST,TemperatureF,Dew PointF,Humidity,Sea Level PressureIn,VisibilityMPH,Wind Direction,Wind SpeedMPH,Gust SpeedMPH,PrecipitationIn,Events,Conditions,WindDirDegrees,DateUTC
12:53 AM,12.9,8.1,81,29.72,10.0,NNW,9.2,-,N/A,,Scattered Clouds,340,2013-11-17 07:53:00
1:53 AM,12.9,9.0,84,29.74,10.0,NNW,9.2,-,N/A,,Overcast,340,2013-11-17 08:53:00
2:53 AM,15.1,9.0,77,29.79,10.0,North,4.6,-,N/A,,Overcast,350,2013-11-17 09:53:00
3:53 AM,17.1,10.9,77,29.81,10.0,SSE,4.6,-,N/A,,Overcast,160,2013-11-17 10:53:00
4:53 AM,16.0,10.9,81,29.86,10.0,East,4.6,-,N/A,,Overcast,80,2013-11-17 11:53:00
5:53 AM,15.1,10.0,80,29.94,10.0,North,4.6,-,N/A,,Overcast,350,2013-11-17 12:53:00
6:53 AM,19.0,12.9,77,29.94,10.0,WNW,8.1,-,N/A,,Overcast,290,2013-11-17 13:53:00
7:53 AM,16.0,10.9,81,29.99,10.0,East,8.1,-,N/A,,Partly Cloudy,80,2013-11-17 14:53:00
8:53 AM,21.9,15.1,75,30.00,10.0,East,5.8,-,N/A,,Overcast,90,2013-11-17 15:53:00
9:53 AM,23.0,16.0,74,30.02,10.0,East,9.2,-,N/A,,Overcast,100,2013-11-17 16:53:00
10:53 AM,26.1,16.0,66,30.06,10.0,East,6.9,-,N/A,,Overcast,90,2013-11-17 17:53:00
11:53 AM,28.0,18.0,66,30.09,10.0,ESE,8.1,-,N/A,,Overcast,110,2013-11-17 18:53:00
12:53 PM,30.0,18.0,61,30.08,10.0,Calm,Calm,-,N/A,,Overcast,0,2013-11-17 19:53:00
1:53 PM,30.9,16.0,54,30.10,10.0,SSW,3.5,-,N/A,,Clear,200,2013-11-17 20:53:00
2:53 PM,30.0,17.1,59,30.11,10.0,Calm,Calm,-,N/A,,Clear,0,2013-11-17 21:53:00
3:53 PM,30.9,14.0,50,30.12,10.0,Calm,Calm,-,N/A,,Clear,0,2013-11-17 22:53:00
4:53 PM,27.0,16.0,63,30.15,10.0,West,5.8,-,N/A,,Clear,270,2013-11-17 23:53:00
5:53 PM,23.0,16.0,74,30.22,10.0,NE,6.9,-,N/A,,Clear,40,2013-11-18 00:53:00
6:53 PM,19.0,16.0,88,30.24,10.0,NNE,5.8,-,N/A,,Clear,30,2013-11-18 01:53:00
7:53 PM,15.1,12.9,91,30.27,10.0,Calm,Calm,-,N/A,,Clear,0,2013-11-18 02:53:00
8:53 PM,14.0,10.9,88,30.26,10.0,NNW,9.2,-,N/A,,Clear,340,2013-11-18 03:53:00
9:53 PM,12.9,9.0,84,30.28,10.0,NNE,4.6,-,N/A,,Clear,20,2013-11-18 04:53:00
10:53 PM,10.9,8.1,88,30.27,10.0,East,4.6,-,N/A,,Clear,90,2013-11-18 05:53:00
11:53 PM,9.0,6.1,88,30.28,10.0,North,4.6,-,N/A,,Clear,360,2013-11-18 06:53:00